Year,Month,Day,Hour,Minute,Value (Times are PST for temperature in C)
2021,06,26,00,00,27.80
2021,06,26,00,01,27.80
2021,06,26,00,02,27.80
2021,06,26,00,03,27.90
2021,06,26,00,04,27.90
2021,06,26,00,05,27.90
2021,06,26,00,06,27.90
2021,06,26,00,07,27.90
2021,06,26,00,08,27.90
2021,06,26,00,09,28.00
2021,06,26,00,10,28.00
2021,06,26,00,11,28.00
2021,06,26,00,12,28.00
2021,06,26,00,13,28.00
2021,06,26,00,14,28.00
2021,06,26,00,15,28.10
2021,06,26,00,16,28.10
2021,06,26,00,17,28.10
2021,06,26,00,18,28.10
2021,06,26,00,19,28.10
2021,06,26,00,20,28.10
2021,06,26,00,21,28.20
2021,06,26,00,22,28.20
2021,06,26,00,23,28.20
2021,06,26,00,24,28.30
2021,06,26,00,25,28.30
2021,06,26,00,26,28.30
2021,06,26,00,27,28.30
2021,06,26,00,28,28.40
2021,06,26,00,29,28.40
2021,06,26,00,30,28.40
2021,06,26,00,31,28.40
2021,06,26,00,32,28.40
2021,06,26,00,33,28.40
2021,06,26,00,34,28.50
2021,06,26,00,35,28.50
2021,06,26,00,36,28.50
2021,06,26,00,37,28.60
2021,06,26,00,38,28.60
2021,06,26,00,39,28.60
2021,06,26,00,40,28.50
2021,06,26,00,41,28.60
2021,06,26,00,42,28.50
2021,06,26,00,43,28.50
2021,06,26,00,44,28.50
2021,06,26,00,45,28.50
2021,06,26,00,46,28.50
2021,06,26,00,47,28.50
2021,06,26,00,48,28.50
2021,06,26,00,49,28.40
2021,06,26,00,50,28.40
2021,06,26,00,51,28.40
2021,06,26,00,52,28.40
2021,06,26,00,53,28.40
2021,06,26,00,54,28.40
2021,06,26,00,55,28.40
2021,06,26,00,56,28.40
2021,06,26,00,57,28.40
2021,06,26,00,58,28.40
2021,06,26,00,59,28.40
2021,06,26,01,00,28.50
2021,06,26,01,01,28.50
2021,06,26,01,02,28.50
2021,06,26,01,03,28.50
2021,06,26,01,04,28.50
2021,06,26,01,05,28.60
2021,06,26,01,06,28.60
2021,06,26,01,07,28.60
2021,06,26,01,08,28.60
2021,06,26,01,09,28.60
2021,06,26,01,10,28.60
2021,06,26,01,11,28.60
2021,06,26,01,12,28.60
2021,06,26,01,13,28.50
2021,06,26,01,14,28.50
2021,06,26,01,15,28.50
2021,06,26,01,16,28.40
2021,06,26,01,17,28.40
2021,06,26,01,18,28.30
2021,06,26,01,19,28.30
2021,06,26,01,20,28.20
2021,06,26,01,21,28.20
2021,06,26,01,22,28.10
2021,06,26,01,23,28.00
2021,06,26,01,24,28.00
2021,06,26,01,25,27.90
2021,06,26,01,26,27.80
2021,06,26,01,27,27.70
2021,06,26,01,28,27.70
2021,06,26,01,29,27.60
2021,06,26,01,30,27.60
2021,06,26,01,31,27.50
2021,06,26,01,32,27.50
2021,06,26,01,33,27.40
2021,06,26,01,34,27.40
2021,06,26,01,35,27.40
2021,06,26,01,36,27.30
2021,06,26,01,37,27.30
2021,06,26,01,38,27.30
2021,06,26,01,39,27.30
2021,06,26,01,40,27.30
2021,06,26,01,41,27.30
2021,06,26,01,42,27.20
2021,06,26,01,43,27.20
2021,06,26,01,44,27.20
2021,06,26,01,45,27.10
2021,06,26,01,46,27.00
2021,06,26,01,47,26.90
2021,06,26,01,48,26.90
2021,06,26,01,49,26.80
2021,06,26,01,50,26.70
2021,06,26,01,51,26.70
2021,06,26,01,52,26.60
2021,06,26,01,53,26.50
2021,06,26,01,54,26.50
2021,06,26,01,55,26.40
2021,06,26,01,56,26.30
2021,06,26,01,57,26.20
2021,06,26,01,58,26.20
2021,06,26,01,59,26.10
2021,06,26,02,00,26.10
2021,06,26,02,01,26.00
2021,06,26,02,02,25.90
2021,06,26,02,03,25.90
2021,06,26,02,04,25.80
2021,06,26,02,05,25.70
2021,06,26,02,06,25.70
2021,06,26,02,07,25.60
2021,06,26,02,08,25.50
2021,06,26,02,09,25.40
2021,06,26,02,10,25.30
2021,06,26,02,11,25.30
2021,06,26,02,12,25.20
2021,06,26,02,13,25.20
2021,06,26,02,14,25.10
2021,06,26,02,15,25.10
2021,06,26,02,16,25.10
2021,06,26,02,17,25.00
2021,06,26,02,18,25.00
2021,06,26,02,19,25.00
2021,06,26,02,20,25.00
2021,06,26,02,21,25.00
2021,06,26,02,22,25.00
2021,06,26,02,23,25.10
2021,06,26,02,24,25.10
2021,06,26,02,25,25.10
2021,06,26,02,26,25.10
2021,06,26,02,27,25.10
2021,06,26,02,28,25.20
2021,06,26,02,29,25.20
2021,06,26,02,30,25.20
2021,06,26,02,31,25.30
2021,06,26,02,32,25.30
2021,06,26,02,33,25.30
2021,06,26,02,34,25.40
2021,06,26,02,35,25.40
2021,06,26,02,36,25.50
2021,06,26,02,37,25.50
2021,06,26,02,38,25.50
2021,06,26,02,39,25.60
2021,06,26,02,40,25.60
2021,06,26,02,41,25.60
2021,06,26,02,42,25.60
2021,06,26,02,43,25.70
2021,06,26,02,44,25.70
2021,06,26,02,45,25.80
2021,06,26,02,46,25.80
2021,06,26,02,47,25.80
2021,06,26,02,48,25.90
2021,06,26,02,49,25.90
2021,06,26,02,50,26.00
2021,06,26,02,51,26.00
2021,06,26,02,52,26.10
2021,06,26,02,53,26.10
2021,06,26,02,54,26.20
2021,06,26,02,55,26.20
2021,06,26,02,56,26.30
2021,06,26,02,57,26.30
2021,06,26,02,58,26.30
2021,06,26,02,59,26.30
2021,06,26,03,00,26.40
2021,06,26,03,01,26.40
2021,06,26,03,02,26.40
2021,06,26,03,03,26.40
2021,06,26,03,04,26.40
2021,06,26,03,05,26.40
2021,06,26,03,06,26.50
2021,06,26,03,07,26.50
2021,06,26,03,08,26.50
2021,06,26,03,09,26.50
2021,06,26,03,10,26.50
2021,06,26,03,11,26.40
2021,06,26,03,12,26.50
2021,06,26,03,13,26.50
2021,06,26,03,14,26.50
2021,06,26,03,15,26.50
2021,06,26,03,16,26.50
2021,06,26,03,17,26.60
2021,06,26,03,18,26.60
2021,06,26,03,19,26.60
2021,06,26,03,20,26.70
2021,06,26,03,21,26.70
2021,06,26,03,22,26.70
2021,06,26,03,23,26.70
2021,06,26,03,24,26.70
2021,06,26,03,25,26.70
2021,06,26,03,26,26.70
2021,06,26,03,27,26.70
2021,06,26,03,28,26.70
2021,06,26,03,29,26.70
2021,06,26,03,30,26.70
2021,06,26,03,31,26.70
2021,06,26,03,32,26.70
2021,06,26,03,33,26.60
2021,06,26,03,34,26.60
2021,06,26,03,35,26.60
2021,06,26,03,36,26.60
2021,06,26,03,37,26.50
2021,06,26,03,38,26.50
2021,06,26,03,39,26.40
2021,06,26,03,40,26.40
2021,06,26,03,41,26.40
2021,06,26,03,42,26.30
2021,06,26,03,43,26.30
2021,06,26,03,44,26.30
2021,06,26,03,45,26.30
2021,06,26,03,46,26.20
2021,06,26,03,47,26.20
2021,06,26,03,48,26.10
2021,06,26,03,49,26.00
2021,06,26,03,50,26.00
2021,06,26,03,51,25.90
2021,06,26,03,52,25.80
2021,06,26,03,53,25.70
2021,06,26,03,54,25.70
2021,06,26,03,55,25.60
2021,06,26,03,56,25.50
2021,06,26,03,57,25.50
2021,06,26,03,58,25.40
2021,06,26,03,59,25.40
2021,06,26,04,00,25.30
2021,06,26,04,01,25.20
2021,06,26,04,02,25.20
2021,06,26,04,03,25.10
2021,06,26,04,04,25.10
2021,06,26,04,05,25.00
2021,06,26,04,06,25.00
2021,06,26,04,07,24.90
2021,06,26,04,08,24.90
2021,06,26,04,09,24.80
2021,06,26,04,10,24.80
2021,06,26,04,11,24.70
2021,06,26,04,12,24.70
2021,06,26,04,13,24.70
2021,06,26,04,14,24.60
2021,06,26,04,15,24.60
2021,06,26,04,16,24.50
2021,06,26,04,17,24.50
2021,06,26,04,18,24.40
2021,06,26,04,19,24.30
2021,06,26,04,20,24.30
2021,06,26,04,21,24.20
2021,06,26,04,22,24.20
2021,06,26,04,23,24.20
2021,06,26,04,24,24.10
2021,06,26,04,25,24.00
2021,06,26,04,26,24.00
2021,06,26,04,27,23.90
2021,06,26,04,28,23.90
2021,06,26,04,29,23.90
2021,06,26,04,30,23.90
2021,06,26,04,31,23.80
2021,06,26,04,32,23.80
2021,06,26,04,33,23.80
2021,06,26,04,34,23.70
2021,06,26,04,35,23.70
2021,06,26,04,36,23.60
2021,06,26,04,37,23.60
2021,06,26,04,38,23.60
2021,06,26,04,39,23.50
2021,06,26,04,40,23.50
2021,06,26,04,41,23.60
2021,06,26,04,42,23.60
2021,06,26,04,43,23.60
2021,06,26,04,44,23.60
2021,06,26,04,45,23.60
2021,06,26,04,46,23.60
2021,06,26,04,47,23.60
2021,06,26,04,48,23.60
2021,06,26,04,49,23.60
2021,06,26,04,50,23.60
2021,06,26,04,51,23.60
2021,06,26,04,52,23.60
2021,06,26,04,53,23.60
2021,06,26,04,54,23.60
2021,06,26,04,55,23.60
2021,06,26,04,56,23.70
2021,06,26,04,57,23.70
2021,06,26,04,58,23.80
2021,06,26,04,59,23.90
2021,06,26,05,00,23.90
2021,06,26,05,01,23.90
2021,06,26,05,02,23.90
2021,06,26,05,03,23.90
2021,06,26,05,04,24.00
2021,06,26,05,05,24.00
2021,06,26,05,06,24.00
2021,06,26,05,07,24.00
2021,06,26,05,08,24.00
2021,06,26,05,09,24.00
2021,06,26,05,10,23.90
2021,06,26,05,11,23.90
2021,06,26,05,12,23.90
2021,06,26,05,13,23.90
2021,06,26,05,14,23.80
2021,06,26,05,15,23.80
2021,06,26,05,16,23.70
2021,06,26,05,17,23.70
2021,06,26,05,18,23.70
2021,06,26,05,19,23.70
2021,06,26,05,20,23.70
2021,06,26,05,21,23.80
2021,06,26,05,22,23.80
2021,06,26,05,23,23.80
2021,06,26,05,24,23.80
2021,06,26,05,25,23.80
2021,06,26,05,26,23.80
2021,06,26,05,27,23.80
2021,06,26,05,28,23.70
2021,06,26,05,29,23.70
2021,06,26,05,30,23.60
2021,06,26,05,31,23.60
2021,06,26,05,32,23.50
2021,06,26,05,33,23.40
2021,06,26,05,34,23.40
2021,06,26,05,35,23.30
2021,06,26,05,36,23.30
2021,06,26,05,37,23.20
2021,06,26,05,38,23.20
2021,06,26,05,39,23.20
2021,06,26,05,40,23.10
2021,06,26,05,41,23.10
2021,06,26,05,42,23.00
2021,06,26,05,43,23.00
2021,06,26,05,44,23.00
2021,06,26,05,45,23.00
2021,06,26,05,46,23.00
2021,06,26,05,47,23.00
2021,06,26,05,48,23.00
2021,06,26,05,49,22.90
2021,06,26,05,50,22.90
2021,06,26,05,51,22.90
2021,06,26,05,52,22.90
2021,06,26,05,53,22.90
2021,06,26,05,54,22.90
2021,06,26,05,55,22.80
2021,06,26,05,56,22.80
2021,06,26,05,57,22.80
2021,06,26,05,58,22.70
2021,06,26,05,59,22.70
2021,06,26,06,00,22.70
2021,06,26,06,01,22.60
2021,06,26,06,02,22.60
2021,06,26,06,03,22.60
2021,06,26,06,04,22.60
2021,06,26,06,05,22.60
2021,06,26,06,06,22.60
2021,06,26,06,07,22.50
2021,06,26,06,08,22.50
2021,06,26,06,09,22.50
2021,06,26,06,10,22.40
2021,06,26,06,11,22.40
2021,06,26,06,12,22.40
2021,06,26,06,13,22.40
2021,06,26,06,14,22.40
2021,06,26,06,15,22.30
2021,06,26,06,16,22.30
2021,06,26,06,17,22.30
2021,06,26,06,18,22.30
2021,06,26,06,19,22.30
2021,06,26,06,20,22.30
2021,06,26,06,21,22.30
2021,06,26,06,22,22.30
2021,06,26,06,23,22.20
2021,06,26,06,24,22.20
2021,06,26,06,25,22.20
2021,06,26,06,26,22.20
2021,06,26,06,27,22.20
2021,06,26,06,28,22.20
2021,06,26,06,29,22.20
2021,06,26,06,30,22.20
2021,06,26,06,31,22.20
2021,06,26,06,32,22.30
2021,06,26,06,33,22.30
2021,06,26,06,34,22.40
2021,06,26,06,35,22.40
2021,06,26,06,36,22.50
2021,06,26,06,37,22.60
2021,06,26,06,38,22.60
2021,06,26,06,39,22.70
2021,06,26,06,40,22.70
2021,06,26,06,41,22.80
2021,06,26,06,42,22.90
2021,06,26,06,43,22.90
2021,06,26,06,44,22.90
2021,06,26,06,45,23.00
2021,06,26,06,46,23.00
2021,06,26,06,47,23.10
2021,06,26,06,48,23.20
2021,06,26,06,49,23.20
2021,06,26,06,50,23.30
2021,06,26,06,51,23.40
2021,06,26,06,52,23.40
2021,06,26,06,53,23.40
2021,06,26,06,54,23.50
2021,06,26,06,55,23.60
2021,06,26,06,56,23.60
2021,06,26,06,57,23.70
2021,06,26,06,58,23.70
2021,06,26,06,59,23.80
2021,06,26,07,00,23.80
2021,06,26,07,01,23.80
2021,06,26,07,02,23.90
2021,06,26,07,03,23.80
2021,06,26,07,04,23.80
2021,06,26,07,05,23.80
2021,06,26,07,06,23.80
2021,06,26,07,07,23.80
2021,06,26,07,08,23.80
2021,06,26,07,09,23.80
2021,06,26,07,10,23.80
2021,06,26,07,11,23.90
2021,06,26,07,12,23.90
2021,06,26,07,13,23.90
2021,06,26,07,14,23.90
2021,06,26,07,15,23.90
2021,06,26,07,16,23.90
2021,06,26,07,17,24.00
2021,06,26,07,18,24.00
2021,06,26,07,19,24.10
2021,06,26,07,20,24.10
2021,06,26,07,21,24.10
2021,06,26,07,22,24.10
2021,06,26,07,23,24.20
2021,06,26,07,24,24.20
2021,06,26,07,25,24.30
2021,06,26,07,26,24.30
2021,06,26,07,27,24.40
2021,06,26,07,28,24.50
2021,06,26,07,29,24.60
2021,06,26,07,30,24.70
2021,06,26,07,31,24.70
2021,06,26,07,32,24.80
2021,06,26,07,33,24.90
2021,06,26,07,34,24.90
2021,06,26,07,35,25.00
2021,06,26,07,36,25.10
2021,06,26,07,37,25.10
2021,06,26,07,38,25.20
2021,06,26,07,39,25.20
2021,06,26,07,40,25.30
2021,06,26,07,41,25.30
2021,06,26,07,42,25.40
2021,06,26,07,43,25.40
2021,06,26,07,44,25.50
2021,06,26,07,45,25.50
2021,06,26,07,46,25.60
2021,06,26,07,47,25.60
2021,06,26,07,48,25.70
2021,06,26,07,49,25.70
2021,06,26,07,50,25.80
2021,06,26,07,51,25.80
2021,06,26,07,52,25.80
2021,06,26,07,53,25.90
2021,06,26,07,54,25.90
2021,06,26,07,55,26.00
2021,06,26,07,56,26.00
2021,06,26,07,57,26.00
2021,06,26,07,58,26.10
2021,06,26,07,59,26.10
2021,06,26,08,00,26.20
2021,06,26,08,01,26.20
2021,06,26,08,02,26.30
2021,06,26,08,03,26.30
2021,06,26,08,04,26.40
2021,06,26,08,05,26.40
2021,06,26,08,06,26.50
2021,06,26,08,07,26.50
2021,06,26,08,08,26.60
2021,06,26,08,09,26.60
2021,06,26,08,10,26.70
2021,06,26,08,11,26.70
2021,06,26,08,12,26.70
2021,06,26,08,13,26.70
2021,06,26,08,14,26.70
2021,06,26,08,15,26.70
2021,06,26,08,16,26.70
2021,06,26,08,17,26.80
2021,06,26,08,18,26.80
2021,06,26,08,19,26.80
2021,06,26,08,20,26.90
2021,06,26,08,21,26.90
2021,06,26,08,22,26.90
2021,06,26,08,23,26.90
2021,06,26,08,24,26.90
2021,06,26,08,25,27.00
2021,06,26,08,26,27.00
2021,06,26,08,27,27.10
2021,06,26,08,28,27.10
2021,06,26,08,29,27.10
2021,06,26,08,30,27.20
2021,06,26,08,31,27.20
2021,06,26,08,32,27.20
2021,06,26,08,33,27.20
2021,06,26,08,34,27.30
2021,06,26,08,35,27.30
2021,06,26,08,36,27.30
2021,06,26,08,37,27.40
2021,06,26,08,38,27.40
2021,06,26,08,39,27.40
2021,06,26,08,40,27.40
2021,06,26,08,41,27.50
2021,06,26,08,42,27.50
2021,06,26,08,43,27.50
2021,06,26,08,44,27.60
2021,06,26,08,45,27.60
2021,06,26,08,46,27.70
2021,06,26,08,47,27.70
2021,06,26,08,48,27.70
2021,06,26,08,49,27.70
2021,06,26,08,50,27.70
2021,06,26,08,51,27.70
2021,06,26,08,52,27.70
2021,06,26,08,53,27.80
2021,06,26,08,54,27.80
2021,06,26,08,55,27.80
2021,06,26,08,56,27.80
2021,06,26,08,57,27.90
2021,06,26,08,58,27.90
2021,06,26,08,59,28.00
2021,06,26,09,00,28.00
2021,06,26,09,01,28.10
2021,06,26,09,02,28.10
2021,06,26,09,03,28.10
2021,06,26,09,04,28.10
2021,06,26,09,05,28.20
2021,06,26,09,06,28.20
2021,06,26,09,07,28.20
2021,06,26,09,08,28.20
2021,06,26,09,09,28.30
2021,06,26,09,10,28.30
2021,06,26,09,11,28.30
2021,06,26,09,12,28.40
2021,06,26,09,13,28.40
2021,06,26,09,14,28.40
2021,06,26,09,15,28.50
2021,06,26,09,16,28.60
2021,06,26,09,17,28.60
2021,06,26,09,18,28.60
2021,06,26,09,19,28.60
2021,06,26,09,20,28.60
2021,06,26,09,21,28.70
2021,06,26,09,22,28.70
2021,06,26,09,23,28.80
2021,06,26,09,24,28.80
2021,06,26,09,25,28.90
2021,06,26,09,26,29.00
2021,06,26,09,27,29.10
2021,06,26,09,28,29.10
2021,06,26,09,29,29.20
2021,06,26,09,30,29.20
2021,06,26,09,31,29.30
2021,06,26,09,32,29.30
2021,06,26,09,33,29.30
2021,06,26,09,34,29.40
2021,06,26,09,35,29.40
2021,06,26,09,36,29.40
2021,06,26,09,37,29.50
2021,06,26,09,38,29.50
2021,06,26,09,39,29.60
2021,06,26,09,40,29.60
2021,06,26,09,41,29.60
2021,06,26,09,42,29.70
2021,06,26,09,43,29.80
2021,06,26,09,44,29.80
2021,06,26,09,45,29.80
2021,06,26,09,46,29.80
2021,06,26,09,47,29.70
2021,06,26,09,48,29.70
2021,06,26,09,49,29.80
2021,06,26,09,50,29.80
2021,06,26,09,51,29.80
2021,06,26,09,52,29.80
2021,06,26,09,53,29.90
2021,06,26,09,54,29.90
2021,06,26,09,55,30.00
2021,06,26,09,56,30.10
2021,06,26,09,57,30.10
2021,06,26,09,58,30.20
2021,06,26,09,59,30.20
2021,06,26,10,00,30.30
2021,06,26,10,01,30.30
2021,06,26,10,02,30.30
2021,06,26,10,03,30.30
2021,06,26,10,04,30.40
2021,06,26,10,05,30.40
2021,06,26,10,06,30.40
2021,06,26,10,07,30.40
2021,06,26,10,08,30.40
2021,06,26,10,09,30.40
2021,06,26,10,10,30.40
2021,06,26,10,11,30.40
2021,06,26,10,12,30.40
2021,06,26,10,13,30.40
2021,06,26,10,14,30.40
2021,06,26,10,15,30.50
2021,06,26,10,16,30.50
2021,06,26,10,17,30.50
2021,06,26,10,18,30.60
2021,06,26,10,19,30.60
2021,06,26,10,20,30.70
2021,06,26,10,21,30.70
2021,06,26,10,22,30.70
2021,06,26,10,23,30.70
2021,06,26,10,24,30.70
2021,06,26,10,25,30.70
2021,06,26,10,26,30.70
2021,06,26,10,27,30.70
2021,06,26,10,28,30.70
2021,06,26,10,29,30.70
2021,06,26,10,30,30.70
2021,06,26,10,31,30.70
2021,06,26,10,32,30.70
2021,06,26,10,33,30.70
2021,06,26,10,34,30.70
2021,06,26,10,35,30.70
2021,06,26,10,36,30.80
2021,06,26,10,37,30.80
2021,06,26,10,38,30.80
2021,06,26,10,39,30.80
2021,06,26,10,40,30.80
2021,06,26,10,41,30.80
2021,06,26,10,42,30.80
2021,06,26,10,43,30.90
2021,06,26,10,44,31.00
2021,06,26,10,45,31.00
2021,06,26,10,46,31.10
2021,06,26,10,47,31.10
2021,06,26,10,48,31.20
2021,06,26,10,49,31.30
2021,06,26,10,50,31.40
2021,06,26,10,51,31.40
2021,06,26,10,52,31.40
2021,06,26,10,53,31.40
2021,06,26,10,54,31.40
2021,06,26,10,55,31.40
2021,06,26,10,56,31.50
2021,06,26,10,57,31.50
2021,06,26,10,58,31.60
2021,06,26,10,59,31.70
2021,06,26,11,00,31.70
2021,06,26,11,01,31.70
2021,06,26,11,02,31.60
2021,06,26,11,03,31.60
2021,06,26,11,04,31.60
2021,06,26,11,05,31.60
2021,06,26,11,06,31.70
2021,06,26,11,07,31.70
2021,06,26,11,08,31.70
2021,06,26,11,09,31.70
2021,06,26,11,10,31.70
2021,06,26,11,11,31.70
2021,06,26,11,12,31.70
2021,06,26,11,13,31.60
2021,06,26,11,14,31.60
2021,06,26,11,15,31.60
2021,06,26,11,16,31.60
2021,06,26,11,17,31.50
2021,06,26,11,18,31.40
2021,06,26,11,19,31.40
2021,06,26,11,20,31.40
2021,06,26,11,21,31.40
2021,06,26,11,22,31.40
2021,06,26,11,23,31.40
2021,06,26,11,24,31.40
2021,06,26,11,25,31.40
2021,06,26,11,26,31.40
2021,06,26,11,27,31.40
2021,06,26,11,28,31.50
2021,06,26,11,29,31.60
2021,06,26,11,30,31.70
2021,06,26,11,31,31.70
2021,06,26,11,32,31.70
2021,06,26,11,33,31.70
2021,06,26,11,34,31.80
2021,06,26,11,35,31.80
2021,06,26,11,36,31.80
2021,06,26,11,37,31.80
2021,06,26,11,38,31.90
2021,06,26,11,39,32.00
2021,06,26,11,40,32.10
2021,06,26,11,41,32.10
2021,06,26,11,42,32.10
2021,06,26,11,43,32.10
2021,06,26,11,44,32.00
2021,06,26,11,45,32.10
2021,06,26,11,46,32.10
2021,06,26,11,47,32.10
2021,06,26,11,48,32.20
2021,06,26,11,49,32.20
2021,06,26,11,50,32.20
2021,06,26,11,51,32.20
2021,06,26,11,52,32.20
2021,06,26,11,53,32.30
2021,06,26,11,54,32.30
2021,06,26,11,55,32.30
2021,06,26,11,56,32.30
2021,06,26,11,57,32.30
2021,06,26,11,58,32.30
2021,06,26,11,59,32.30
2021,06,26,12,00,32.30
2021,06,26,12,01,32.30
2021,06,26,12,02,32.30
2021,06,26,12,03,32.30
2021,06,26,12,04,32.30
2021,06,26,12,05,32.30
2021,06,26,12,06,32.30
2021,06,26,12,07,32.40
2021,06,26,12,08,32.40
2021,06,26,12,09,32.50
2021,06,26,12,10,32.60
2021,06,26,12,11,32.80
2021,06,26,12,12,32.90
2021,06,26,12,13,32.80
2021,06,26,12,14,32.70
2021,06,26,12,15,32.70
2021,06,26,12,16,32.70
2021,06,26,12,17,32.70
2021,06,26,12,18,32.70
2021,06,26,12,19,32.70
2021,06,26,12,20,32.70
2021,06,26,12,21,32.70
2021,06,26,12,22,32.70
2021,06,26,12,23,32.70
2021,06,26,12,24,32.70
2021,06,26,12,25,32.80
2021,06,26,12,26,32.80
2021,06,26,12,27,32.80
2021,06,26,12,28,32.80
2021,06,26,12,29,32.80
2021,06,26,12,30,32.70
2021,06,26,12,31,32.70
2021,06,26,12,32,32.70
2021,06,26,12,33,32.80
2021,06,26,12,34,32.90
2021,06,26,12,35,32.90
2021,06,26,12,36,33.00
2021,06,26,12,37,33.10
2021,06,26,12,38,33.20
2021,06,26,12,39,33.30
2021,06,26,12,40,33.30
2021,06,26,12,41,33.30
2021,06,26,12,42,33.40
2021,06,26,12,43,33.40
2021,06,26,12,44,33.50
2021,06,26,12,45,33.50
2021,06,26,12,46,33.50
2021,06,26,12,47,33.60
2021,06,26,12,48,33.60
2021,06,26,12,49,33.70
2021,06,26,12,50,33.70
2021,06,26,12,51,33.80
2021,06,26,12,52,33.80
2021,06,26,12,53,33.70
2021,06,26,12,54,33.70
2021,06,26,12,55,33.60
2021,06,26,12,56,33.50
2021,06,26,12,57,33.50
2021,06,26,12,58,33.50
2021,06,26,12,59,33.50
2021,06,26,13,00,33.60
2021,06,26,13,01,33.60
2021,06,26,13,02,33.60
2021,06,26,13,03,33.60
2021,06,26,13,04,33.60
2021,06,26,13,05,33.60
2021,06,26,13,06,33.60
2021,06,26,13,07,33.70
2021,06,26,13,08,33.70
2021,06,26,13,09,33.70
2021,06,26,13,10,33.80
2021,06,26,13,11,33.70
2021,06,26,13,12,33.70
2021,06,26,13,13,33.70
2021,06,26,13,14,33.70
2021,06,26,13,15,33.70
2021,06,26,13,16,33.80
2021,06,26,13,17,33.80
2021,06,26,13,18,33.70
2021,06,26,13,19,33.70
2021,06,26,13,20,33.70
2021,06,26,13,21,33.80
2021,06,26,13,22,33.90
2021,06,26,13,23,34.00
2021,06,26,13,24,34.10
2021,06,26,13,25,34.10
2021,06,26,13,26,34.20
2021,06,26,13,27,34.20
2021,06,26,13,28,34.30
2021,06,26,13,29,34.40
2021,06,26,13,30,34.50
2021,06,26,13,31,34.60
2021,06,26,13,32,34.70
2021,06,26,13,33,34.70
2021,06,26,13,34,34.70
2021,06,26,13,35,34.70
2021,06,26,13,36,34.70
2021,06,26,13,37,34.70
2021,06,26,13,38,34.80
2021,06,26,13,39,34.90
2021,06,26,13,40,35.10
2021,06,26,13,41,35.20
2021,06,26,13,42,35.30
2021,06,26,13,43,35.50
2021,06,26,13,44,35.60
2021,06,26,13,45,35.60
2021,06,26,13,46,35.70
2021,06,26,13,47,35.70
2021,06,26,13,48,35.80
2021,06,26,13,49,35.90
2021,06,26,13,50,35.90
2021,06,26,13,51,36.00
2021,06,26,13,52,36.10
2021,06,26,13,53,36.10
2021,06,26,13,54,36.10
2021,06,26,13,55,36.10
2021,06,26,13,56,36.10
2021,06,26,13,57,36.10
2021,06,26,13,58,36.10
2021,06,26,13,59,36.10
2021,06,26,14,00,36.00
2021,06,26,14,01,35.90
2021,06,26,14,02,35.80
2021,06,26,14,03,35.70
2021,06,26,14,04,35.60
2021,06,26,14,05,35.60
2021,06,26,14,06,35.60
2021,06,26,14,07,35.60
2021,06,26,14,08,35.70
2021,06,26,14,09,35.70
2021,06,26,14,10,35.80
2021,06,26,14,11,35.80
2021,06,26,14,12,35.90
2021,06,26,14,13,35.90
2021,06,26,14,14,36.00
2021,06,26,14,15,36.00
2021,06,26,14,16,36.00
2021,06,26,14,17,35.90
2021,06,26,14,18,35.90
2021,06,26,14,19,35.90
2021,06,26,14,20,36.00
2021,06,26,14,21,36.00
2021,06,26,14,22,36.10
2021,06,26,14,23,36.10
2021,06,26,14,24,36.20
2021,06,26,14,25,36.10
2021,06,26,14,26,36.10
2021,06,26,14,27,36.00
2021,06,26,14,28,36.00
2021,06,26,14,29,36.00
2021,06,26,14,30,36.00
2021,06,26,14,31,36.00
2021,06,26,14,32,36.00
2021,06,26,14,33,35.90
2021,06,26,14,34,35.90
2021,06,26,14,35,35.80
2021,06,26,14,36,35.80
2021,06,26,14,37,35.80
2021,06,26,14,38,35.80
2021,06,26,14,39,35.80
2021,06,26,14,40,35.90
2021,06,26,14,41,35.90
2021,06,26,14,42,36.00
2021,06,26,14,43,36.10
2021,06,26,14,44,36.10
2021,06,26,14,45,36.20
2021,06,26,14,46,36.20
2021,06,26,14,47,36.20
2021,06,26,14,48,36.30
2021,06,26,14,49,36.30
2021,06,26,14,50,36.30
2021,06,26,14,51,36.30
2021,06,26,14,52,36.30
2021,06,26,14,53,36.30
2021,06,26,14,54,36.20
2021,06,26,14,55,36.20
2021,06,26,14,56,36.20
2021,06,26,14,57,36.30
2021,06,26,14,58,36.40
2021,06,26,14,59,36.50
2021,06,26,15,00,36.70
2021,06,26,15,01,36.80
2021,06,26,15,02,36.80
2021,06,26,15,03,36.90
2021,06,26,15,04,36.90
2021,06,26,15,05,37.00
2021,06,26,15,06,37.10
2021,06,26,15,07,37.00
2021,06,26,15,08,37.00
2021,06,26,15,09,37.00
2021,06,26,15,10,37.00
2021,06,26,15,11,37.10
2021,06,26,15,12,37.10
2021,06,26,15,13,37.10
2021,06,26,15,14,37.20
2021,06,26,15,15,37.10
2021,06,26,15,16,37.00
2021,06,26,15,17,37.00
2021,06,26,15,18,36.90
2021,06,26,15,19,36.90
2021,06,26,15,20,36.80
2021,06,26,15,21,36.80
2021,06,26,15,22,36.80
2021,06,26,15,23,36.80
2021,06,26,15,24,36.80
2021,06,26,15,25,36.80
2021,06,26,15,26,36.90
2021,06,26,15,27,36.90
2021,06,26,15,28,36.80
2021,06,26,15,29,36.70
2021,06,26,15,30,36.70
2021,06,26,15,31,36.70
2021,06,26,15,32,36.60
2021,06,26,15,33,36.60
2021,06,26,15,34,36.70
2021,06,26,15,35,36.70
2021,06,26,15,36,36.70
2021,06,26,15,37,36.80
2021,06,26,15,38,36.80
2021,06,26,15,39,36.80
2021,06,26,15,40,36.80
2021,06,26,15,41,36.90
2021,06,26,15,42,36.90
2021,06,26,15,43,36.90
2021,06,26,15,44,37.00
2021,06,26,15,45,37.00
2021,06,26,15,46,37.00
2021,06,26,15,47,36.90
2021,06,26,15,48,36.90
2021,06,26,15,49,36.90
2021,06,26,15,50,36.90
2021,06,26,15,51,36.90
2021,06,26,15,52,37.00
2021,06,26,15,53,37.00
2021,06,26,15,54,37.00
2021,06,26,15,55,36.90
2021,06,26,15,56,36.90
2021,06,26,15,57,36.90
2021,06,26,15,58,36.90
2021,06,26,15,59,36.90
2021,06,26,16,00,37.00
2021,06,26,16,01,37.10
2021,06,26,16,02,37.10
2021,06,26,16,03,37.20
2021,06,26,16,04,37.20
2021,06,26,16,05,37.20
2021,06,26,16,06,37.20
2021,06,26,16,07,37.10
2021,06,26,16,08,37.00
2021,06,26,16,09,36.90
2021,06,26,16,10,36.80
2021,06,26,16,11,36.80
2021,06,26,16,12,36.80
2021,06,26,16,13,36.80
2021,06,26,16,14,36.90
2021,06,26,16,15,36.90
2021,06,26,16,16,37.00
2021,06,26,16,17,37.10
2021,06,26,16,18,37.20
2021,06,26,16,19,37.20
2021,06,26,16,20,37.20
2021,06,26,16,21,37.20
2021,06,26,16,22,37.10
2021,06,26,16,23,37.10
2021,06,26,16,24,37.10
2021,06,26,16,25,37.10
2021,06,26,16,26,37.10
2021,06,26,16,27,37.20
2021,06,26,16,28,37.20
2021,06,26,16,29,37.20
2021,06,26,16,30,37.20
2021,06,26,16,31,37.10
2021,06,26,16,32,37.10
2021,06,26,16,33,37.20
2021,06,26,16,34,37.10
2021,06,26,16,35,37.10
2021,06,26,16,36,37.10
2021,06,26,16,37,37.20
2021,06,26,16,38,37.20
2021,06,26,16,39,37.20
2021,06,26,16,40,37.30
2021,06,26,16,41,37.30
2021,06,26,16,42,37.30
2021,06,26,16,43,37.20
2021,06,26,16,44,37.20
2021,06,26,16,45,37.20
2021,06,26,16,46,37.10
2021,06,26,16,47,37.10
2021,06,26,16,48,37.10
2021,06,26,16,49,37.00
2021,06,26,16,50,37.00
2021,06,26,16,51,37.00
2021,06,26,16,52,37.00
2021,06,26,16,53,37.10
2021,06,26,16,54,37.20
2021,06,26,16,55,37.20
2021,06,26,16,56,37.30
2021,06,26,16,57,37.40
2021,06,26,16,58,37.40
2021,06,26,16,59,37.30
2021,06,26,17,00,37.40
2021,06,26,17,01,37.40
2021,06,26,17,02,37.50
2021,06,26,17,03,37.60
2021,06,26,17,04,37.60
2021,06,26,17,05,37.70
2021,06,26,17,06,37.70
2021,06,26,17,07,37.70
2021,06,26,17,08,37.70
2021,06,26,17,09,37.70
2021,06,26,17,10,37.60
2021,06,26,17,11,37.60
2021,06,26,17,12,37.50
2021,06,26,17,13,37.50
2021,06,26,17,14,37.50
2021,06,26,17,15,37.50
2021,06,26,17,16,37.60
2021,06,26,17,17,37.70
2021,06,26,17,18,37.70
2021,06,26,17,19,37.80